Location: Buisson
(44.2787°N, 4.9969°E)
Time: 06:33:33
(UTC+00:00)

ADEOS Rocket - Pass Details

Date: 18 April 2021
Orbit: 859 x 1305 km, 98.7° (Epoch: 05 May)

Event Time Altitude Azimuth Distance (km) Brightness Sun altitude
Exits shadow 03:04:15 22° 200° (SSW) 2,070 4.2 -18.0°
Maximum altitude 03:08:09 47° 263° (W) 1,394 3.4 -17.4°
Drops below altitude 10° 03:14:48 10° 336° (NNW) 3,064 5.7 -16.4°
Sets 03:17:40 0° 342° (NNW) 4,093 6.5 -16.0°
